Location: Widewater Village at Stafford
(38.4893°N, 77.3783°W)
Time: 16:37:19
(UTC+00:00)

X-37B - Visible Passes

Search period start: 27 November 2022 00:00
Search period end: 07 December 2022 00:00
Orbit: 277 x 277 km, 45.0° (Epoch: 01 November)

Date Brightness Start Highest point End Pass type
(mag) Time Alt. Az. Time Alt. Az. Time Alt. Az.
04 Dec 2.8 23:29:48 10° SSW 23:30:16 13° S 23:30:16 13° S visible
05 Dec 2.0 23:29:57 10° SW 23:31:11 23° SSW 23:31:11 23° SSW visible
06 Dec 1.6 23:30:28 10° WSW 23:32:02 34° WSW 23:32:02 34° WSW visible
